This demonstration page uses our WeatherBlox Daily Observations layout. Learn more.

Left ArrowRight Arrow

Hourly Observations for January 3, 2018

Temp ( °F °C ) Dew Point ( °F °C ) Humidity (%) Winds ( mph kmh ) Pressure ( in mb ) Visibility ( mi km ) Precip ( " mm )
12:53 am 00:53 Clear 14 -10 11 -11.7 88 88 NW 3 6 30.54 1034 10 16 0.00 0.00
1:53 am 01:53 Clear 12 -11.1 9 -12.8 87 87 NNW 8 13 30.53 1034 10 16 0.00 0.00
2:53 am 02:53 Clear 11 -11.7 9 -12.8 92 92 N 6 9 30.53 1034 10 16 0.00 0.00
3:53 am 03:53 Clear 10 -12.2 7 -13.9 87 87 N 7 11 30.53 1034 10 16 0.00 0.00
4:53 am 04:53 Clear 11 -11.7 8 -13.3 88 88 NW 7 11 30.51 1033 10 16 0.00 0.00
5:53 am 05:53 Clear 10 -12.2 6 -14.4 84 84 N 5 7 30.53 1034 10 16 0.00 0.00
6:53 am 06:53 Clear 10 -12.2 6 -14.4 84 84 N 6 9 30.55 1035 10 16 0.00 0.00
7:53 am 07:53 Clear 9 -12.8 5 -15 84 84 N 6 9 30.58 1035 10 16 0.00 0.00
8:53 am 08:53 Sunny 16 -8.9 10 -12.2 77 77 Calm 30.56 1035 10 16 0.00 0.00
9:53 am 09:53 Sunny 27 -2.8 15 -9.4 61 61 undefined N/A 30.53 1034 10 16 0.00 0.00
10:53 am 10:53 Sunny 36 2.2 14 -10 40 40 W 5 7 30.53 1034 10 16 0.00 0.00
11:53 am 11:53 Sunny 43 6.1 14 -10 31 31 WSW 6 9 30.50 1033 10 16 0.00 0.00
12:53 pm 12:53 Sunny 46 7.8 12 -11.1 25 25 WSW 10 17 30.45 1031 10 16 0.00 0.00
1:53 pm 13:53 Sunny 49 9.4 9 -12.8 20 20 W 8 13 30.41 1030 10 16 0.00 0.00
2:53 pm 14:53 Sunny 51 10.6 8 -13.3 17 17 VRB 6 9 30.38 1029 10 16 0.00 0.00
3:53 pm 15:53 Sunny 53 11.7 7 -13.9 15 15 Calm 30.36 1028 10 16 0.00 0.00
4:53 pm 16:53 Sunny 51 10.6 8 -13.3 17 17 WSW 6 9 30.35 1028 10 16 0.00 0.00
5:53 pm 17:53 Sunny 46 7.8 8 -13.3 21 21 SSW 6 9 30.34 1028 10 16 0.00 0.00
6:53 pm 18:53 Clear 38 3.3 8 -13.3 29 29 SSE 6 9 30.35 1028 8 13 0.00 0.00
7:53 pm 19:53 Clear 34 1.1 8 -13.3 34 34 SSW 5 7 30.37 1028 10 16 0.00 0.00
8:53 pm 20:53 Clear 32 0 9 -12.8 38 38 SW 8 13 30.36 1028 10 16 0.00 0.00
9:53 pm 21:53 Clear 34 1.1 10 -12.2 37 37 Calm 30.32 1027 10 16 0.00 0.00
10:53 pm 22:53 Clear 30 -1.1 11 -11.7 45 45 SSW 5 7 30.30 1026 10 16 0.00 0.00
11:53 pm 23:53 Clear 26 -3.3 10 -12.2 51 51 NE 6 9 30.29 1026 10 16 0.00 0.00

Powered by AerisWeather